• Processing (Info)

  • MPEC 1995-C15 : 1995 BL2

    The following Minor Planet Electronic Circular may be linked-to from your own Web pages, but must not otherwise be redistributed electronically.

    A form allowing access to any MPEC is at the bottom of this page.


    Read MPEC 1995-C14 Read MPEC 1995-C16


    M.P.E.C. 1995-C15                                Issued 1995 Feb. 8, 14:12 UT
    
         The Minor Planet Electronic Circulars contain information on unusual
             minor planets and routine data on comets.  They are published
       on behalf of Commission 20 of the International Astronomical Union by the
              Minor Planet Center, Smithsonian Astrophysical Observatory,
                              Cambridge, MA 02138, U.S.A.
    
              MARSDEN@CFA or WILLIAMS@CFA (.HARVARD.EDU, .SPAN or .BITNET)
    
                                       1995 BL2
    
    Additional observations:
         J95B02L  C1995 02 02.38902 09 16 24.93 +13 13 56.7          18.2 V      691
         J95B02L  C1995 02 02.39475 09 16 23.95 +13 13 55.2          18.3 V      691
         J95B02L  C1995 02 02.40105 09 16 22.89 +13 13 53.5          18.2 V      691
         J95B02L  C1995 02 03.14506 09 14 18.57 +13 10 50.3          17.9 R      817
         J95B02L  C1995 02 03.15905 09 14 16.23 +13 10 47.8          18.1 R      817
         J95B02L  C1995 02 03.17306 09 14 13.82 +13 10 43.8          18.3 R      817
         J95B02L  C1995 02 02.89404 09 15 00.82 +13 11 50.6                      557
         J95B02L  C1995 02 02.90179 09 14 59.51 +13 11 49.4          18.6 V      557
         J95B02L  C1995 02 02.90949 09 14 58.16 +13 11 47.3                      557
         J95B02L  C1995 02 03.97240 09 11 58.62 +13 07 25.1                      557
         J95B02L  C1995 02 03.98112 09 11 57.10 +13 07 23.3          18.5 V      557
         J95B02L  C1995 02 03.99424 09 11 54.85 +13 07 20.1                      557
         J95B02L  C1995 02 07.31303 09 02 28.43 +12 53 03.9                      658
         J95B02L  C1995 02 07.31588 09 02 27.97 +12 53 03.1                      658
         J95B02L  C1995 02 07.31847 09 02 27.50 +12 53 02.5                      658
         J95B02L  C1995 02 07.85505 09 00 55.74 +12 50 38.7          18.0 R      540
         J95B02L  C1995 02 07.85880 09 00 54.96 +12 50 37.2          18.3 R      540
         J95B02L  C1995 02 07.86233 09 00 54.36 +12 50 35.9          18.0 R      540
    
    Observer details:
    540 Linz.  Observers E. Meyer, H. Raab.  0.3-m f/5.2 Schmidt-Cassegrain.
    557 Ondrejov.  Observer L. Sarounova.  Measurer P. Pravec.  0.65-m
        f/3.6 reflector.
    658 Dominion Astrophysical Observatory, Victoria.  Observer D. D. Balam.
        1.82-m Plaskett telescope.
    691 Steward Observatory, Kitt Peak.  Observer J. V. Scotti.
        0.9-m Spacewatch telescope.
    817 Sudbury.  Observer D. di Cicco.  0.28-m Schmidt-Cassegrain.
    
    Orbital elements:
    1995 BL2
    Epoch 1995 Jan. 23.0 TT = JDT 2449740.5                 Marsden
    M 209.33577              (2000.0)            P               Q
    n   0.72111269     Peri.  348.21118     +0.52186362     +0.80242442
    a   1.2315932      Node   312.43826     -0.74730623     +0.26645113
    e   0.4942999      Incl.   23.09069     -0.41132927     +0.53396521
    P   1.37           H    17.5          G   0.15
    From 27 observations 1995 Jan. 31-Feb. 7.
    
    Ephemeris:
    1995 BL2                 a,e,i = 1.23, 0.49, 23                  q = 0.6228
    Date    TT    R. A. (2000) Decl.     Delta      r     Elong.  Phase     V
    1995 02 07    09 03.37   +12 54.6    0.789    1.773   175.0     2.8    18.5
    1995 02 12    08 49.11   +12 31.4    0.784    1.760   167.3     7.1    18.7
    1995 02 17    08 35.29   +12 06.3    0.787    1.746   159.2    11.6    18.9
    1995 02 22    08 22.39   +11 39.6    0.798    1.731   151.2    16.0    19.1
    1995 02 27    08 10.81   +11 12.1    0.815    1.715   143.5    20.1    19.2
    1995 03 04    08 00.82   +10 44.3    0.838    1.698   136.2    23.8    19.4
    1995 03 09    07 52.56   +10 16.7    0.865    1.680   129.3    27.2    19.5
    1995 03 14    07 46.06   +09 49.5    0.895    1.660   122.9    30.2    19.7
    1995 03 19    07 41.25   +09 22.8    0.928    1.639   116.9    32.8    19.8
    1995 03 24    07 38.02   +08 56.6    0.962    1.617   111.3    35.0    19.9
    1995 03 29    07 36.24   +08 30.6    0.996    1.594   106.1    37.0    20.0
    1995 04 03    07 35.80   +08 04.5    1.031    1.570   101.2    38.7    20.1
    1995 04 08    07 36.55   +07 38.0    1.065    1.544    96.7    40.1    20.2
    1995 04 13    07 38.37   +07 10.8    1.097    1.517    92.4    41.3    20.2
    1995 04 18    07 41.13   +06 42.5    1.127    1.489    88.5    42.4    20.3
    1995 04 23    07 44.74   +06 12.8    1.155    1.460    84.7    43.3    20.3
    1995 04 28    07 49.12   +05 41.4    1.180    1.429    81.2    44.1    20.3
    1995 05 03    07 54.19   +05 08.0    1.203    1.397    77.9    44.8    20.3
    1995 05 08    07 59.90   +04 32.3    1.221    1.364    74.7    45.5    20.3
    1995 05 13    08 06.19   +03 54.2    1.236    1.330    71.8    46.2    20.3
    1995 05 18    08 13.01   +03 13.4    1.247    1.294    69.0    46.9    20.3
    1995 05 23    08 20.32   +02 29.8    1.254    1.257    66.4    47.5    20.3
    1995 05 28    08 28.12   +01 43.3    1.256    1.219    63.9    48.3    20.2
    1995 06 02    08 36.37   +00 53.6    1.254    1.180    61.6    49.1    20.2
    
    Brian G. Marsden                                              M.P.E.C. 1995-C15
    

    Read MPEC 1995-C14 Read MPEC 1995-C16


    MPEC number:

    Enter an MPEC number in one of the following forms:

    • 1997-B01 (the full form)
    • J97B01 (the packed version of the full form)
    • B01 (the abbreviated form)